Regional Weather Roundup
Issued by NWS

Home | Current Version | Previous Version | Graphics & Text | Print | Product List | Glossary On
Versions: 1 2 3 4 5 6 7 8 9 10 11 12 13 14 15 16 17 18 19 20 21 22 23 24 25 26 27 28 29 30 31 32 33 34 35 36 37 38 39 40 41 42 43 44 45 46 47 48 49 50
000
ASUS43 KMPX 011601
RWRMN
WEATHER ROUNDUP FOR MINNESOTA
NATIONAL WEATHER SERVICE TWIN CITIES/CHANHASSEN MN
1100 AM CDT SUN MAY 01 2016


NOTE: "FAIR" INDICATES FEW OR NO CLOUDS BELOW 12,000 FEET WITH NO
SIGNIFICANT WEATHER AND/OR OBSTRUCTIONS TO VISIBILITY. N/A MEANS
CURRENT SKY AND/OR WEATHER CONDITIONS ARE NOT AVAILABLE.

MNZ060>063-068>070-011700-
   Twin Cities Metro

CITY           SKY/WX    TMP DP  RH WIND       PRES   REMARKS
TWIN CITIES    PTSUNNY   53  37  54 N14       30.16F
ST PAUL        SUNNY     54  38  54 NE14      30.16F
CRYSTAL        SUNNY     53  36  52 NE8       30.16S
BLAINE         MOSUNNY   54  37  54 NE8G17    30.17S
EDEN PRAIRIE   SUNNY     53  36  52 NE10      30.15S
SOUTH ST PAUL  SUNNY     53  35  51 NE9       30.15F
LAKE ELMO      FAIR      52  39  62 NE9G16    30.17S
$$
MNZ001>005-007-008-013>017-022>024-027-028-011700-
   Northwest Minnesota

CITY           SKY/WX    TMP DP  RH WIND       PRES   REMARKS
BEMIDJI        SUNNY     52  29  42 NE8       30.26F
HALLOCK        SUNNY     59  21  23 E7        30.29F
ROSEAU         SUNNY     55  34  44 NE5       30.29F
WARROAD        SUNNY     52  36  54 NE5       30.30F
THIEF RVR FALL SUNNY     55  28  35 NE6G16    30.29F
CROOKSTON      SUNNY     55  32  41 NE6       30.29F
FOSSTON        SUNNY     55  28  35 N8G17     30.28F
DETROIT LAKES  SUNNY     52  30  43 N5        30.27F
MOORHEAD       SUNNY     54  30  40 NE5       30.29F
PARK RAPIDS    SUNNY     53  27  36 NE10      30.25F
MAHNOMEN       FAIR      51  30  44 N5        30.28F
$$
MNZ006-009>011-018-025>026-011700-
   North Central Minnesota

CITY           SKY/WX    TMP DP  RH WIND       PRES   REMARKS
BAUDETTE       SUNNY     55  29  36 VRB5      30.28F
FLAG ISLAND    SUNNY     45  32  61 SE6       30.29F
INTL FALLS     SUNNY     50  30  46 N10       30.28F
WASKISH        SUNNY     52  36  54 SW3       30.27F
BIG FORK       SUNNY     54  28  37 N9        30.26F
LONGVILLE      SUNNY     54  28  37 NE8       30.24F
GRAND RAPIDS   SUNNY     48  27  43 N8G16     30.26F
CRANE LAKE     SUNNY     46  30  53 NW5         N/A
ORR            SUNNY     48  25  40 N3        30.24F
COOK           SUNNY     48  30  49 N5        30.26F
WALKER         FAIR      50  29  45 N10       30.26F
$$
MNZ012-019>021-037-011700-
   Northeast Minnesota

CITY           SKY/WX    TMP DP  RH WIND       PRES   REMARKS
DULUTH         MOSUNNY   47  35  63 E10       30.23F
ELY            SUNNY     48  30  49 NE9       30.25F
HIBBING        SUNNY     49  28  44 NE7       30.24F
EVELETH        SUNNY     52  30  43 NE9       30.25F
DULUTH HARBOR  CLOUDY    43  37  81 NE9       30.28S
TWO HARBORS    MOSUNNY   50  39  66 E12G18    30.24S
SILVER BAY     SUNNY     46  36  66 E13       30.25F
GRAND MARAIS     N/A     42  35  76 E9        30.26F
G MARAIS ARPRT SUNNY     50  30  46 E7        30.24S
$$
MNZ029>031-032-039>041-046>048-054>057-064-011700-
   West Central Minnesota

CITY           SKY/WX    TMP DP  RH WIND       PRES   REMARKS
FERGUS FALLS   SUNNY     52  30  43 NE12G18   30.24F
WHEATON        SUNNY     55  34  44 NE10      30.27F
MORRIS         SUNNY     54  34  47 NE16G25   30.22F
ALEXANDRIA     SUNNY     51  31  46 NE13G25   30.23F
ELBOW LAKE     FAIR      49  32  51 NE12G20   30.26S
WADENA         SUNNY     52  30  43 NE15G22   30.23F
GLENWOOD       SUNNY     52  34  50 N16       30.22F
APPLETON       SUNNY     54  30  40 NE21G26   30.22S
BENSON         SUNNY     54  30  40 E12       30.22S
ORTONVILLE     SUNNY     52  32  46 NE20      30.23F
MADISON        SUNNY     52  34  50 NE16G23   30.21F
WILLMAR        FAIR      52  36  54 NE14G21   30.21S
$$
MNZ033>034-036-042>043-049>051-058-059-011700-
   Central Minnesota

CITY           SKY/WX    TMP DP  RH WIND       PRES   REMARKS
ST CLOUD       MOSUNNY   51  34  52 NE8       30.20F
SAUK CENTRE    FAIR      49  32  51 NE18      30.22S
PAYNESVILLE    MOSUNNY   51  33  50 N12G18    30.21F
AITKIN         SUNNY     54  27  35 NE10G18   30.22F
PINE RIVER     SUNNY     52  32  46 N10G22    30.26F
BRAINERD       SUNNY     51  30  44 NE13G20   30.23F
STAPLES        SUNNY     52  28  40 NE9G16    30.23F
LONG PRAIRIE   FAIR      48  32  53 NE13G18   30.23S
LITTLE FALLS   SUNNY     50  30  46 NE8       30.22F
LITCHFIELD     MOSUNNY   50  37  62 NE14      30.19F
BUFFALO        MOSUNNY   51  36  54 NE15G22   30.19S
MAPLE LAKE     SUNNY     51  39  63 NE10G16   30.20S
HUTCHINSON     SUNNY     51  39  62 NE15G23   30.19S
$$
MNZ037-044-045-052-053-011700-
   East Central Minnesota

CITY           SKY/WX    TMP DP  RH WIND       PRES   REMARKS
PRINCETON        N/A     52  36  54 NE14      30.20F
MORA           SUNNY     50  34  53 NE8G17    30.22F
CAMBRIDGE      SUNNY     54  37  54 N10G17    30.17F
RUSH CITY      SUNNY     52  37  56 N10G18    30.19F
MOOSE LAKE     SUNNY     48  34  57 NE9G18    30.21F
HINCKLEY       FAIR      50  37  62 NE13G20   30.21F
CLOQUET        MOSUNNY   48  34  57 E12       30.23F
MCGREGOR       SUNNY     50  32  50 E13       30.24F
$$
MNZ071>073-080-081-089-090-097-098-011700-
   Southwest Minnesota

CITY           SKY/WX    TMP DP  RH WIND       PRES   REMARKS
MONTEVIDEO     SUNNY     54  36  50 E17       30.22S
GRANITE FALLS  SUNNY     53  35  51 N15       30.21S
CANBY          SUNNY     53  38  58 NE12      30.22S
MARSHALL       SUNNY     48  37  65 NE12      30.20S
REDWOOD FALLS  SUNNY     51  34  52 NE10G17   30.18R
OLIVIA         SUNNY     52  34  50 NE13G21   30.17F
WINDOM         CLOUDY    48  41  76 N13       30.15S
WORTHINGTON    CLOUDY    43  38  82 N20       30.15S
JACKSON        CLOUDY    45  37  76 N14       30.14R
TRACY          CLOUDY    47  39  74 N13       30.19R
SLAYTON        CLOUDY    41  37  86 N13       30.18R
$$
MNZ065>067-074>077-082>085-091>093-011700-
   South Central Minnesota

CITY           SKY/WX    TMP DP  RH WIND       PRES   REMARKS
MANKATO        SUNNY     48  37  66 NE14      30.14S
NEW ULM        SUNNY     50  37  62 NE12      30.15S
ST JAMES       CLOUDY    45  37  76 N13       30.16S
FAIRMONT       CLOUDY    45  36  70 N13       30.12S
GLENCOE        SUNNY     51  40  67 N10G17    30.16F
FARIBAULT      CLOUDY    52  39  62 NE10      30.13F
OWATONNA       CLOUDY    48  39  71 NE10      30.12F
WASECA         CLOUDY    46  39  76 NE14G21   30.13F
ALBERT LEA     CLOUDY    46  39  76 NE10G16   30.10S
$$
MNZ078>079-086>088-094>096-011700-
   Southeast Minnesota

CITY           SKY/WX    TMP DP  RH WIND       PRES   REMARKS
ROCHESTER      CLOUDY    49  40  71 NE16      30.10S
RED WING       CLOUDY    55  34  44 NE7       30.12S
STANTON        CLOUDY    53  40  61 N16       30.12F
DODGE CENTER   CLOUDY    48  39  71 NE15G22   30.10S
WINONA         CLOUDY    48  37  66 NE5       30.12S
AUSTIN         CLOUDY    46  36  66 NE9G18    30.09S
PRESTON        CLOUDY    45  37  73 NE12G17   30.09S
$$
ABBREVIATIONS USED IN REMARKS
   TC - TEMPERATURES IN CELSIUS
  WCI - WIND CHILL INDEX
   HX - HEAT INDEX
  VSB - VISIBILITY
$$




USA.gov is the U.S. government's official web portal to all federal, state and local government web resources and services.